Regional Weather Roundup
Issued by NWS

Home | Current Version | Previous Version | Graphics & Text | Print | Product List | Glossary On
Versions: 1 2 3 4 5 6 7 8 9 10 11 12 13 14 15 16 17 18 19 20 21 22 23 24 25 26 27 28 29 30 31 32 33 34 35 36 37 38 39 40 41 42 43 44 45 46 47 48 49 50
000
ASUS43 KLOT 211758
RWRIL

ILLINOIS REGIONAL WEATHER ROUNDUP
NATIONAL WEATHER SERVICE CHICAGO/ROMEOVILLE IL
100 PM CDT SUN SEP 21 2014

NOTE: "FAIR" INDICATES FEW OR NO CLOUDS BELOW 12,000 FEET WITH NO
SIGNIFICANT WEATHER AND/OR OBSTRUCTIONS TO VISIBILITY.

* THESE STATIONS ARE NOT UNDER NWS QUALITY CONTROL. THEY ALSO MAY NOT
  REPORT WEATHER SUCH AS PRECIPITATION OR FOG.

ILZ001-002-007-009-015-016-024-211900-
NORTHWEST ILLINOIS

CITY           SKY/WX    TMP DP  RH WIND       PRES   REMARKS
MOLINE         CLOUDY    63  49  60 NW14G25   30.05R
6HR MIN TEMP:  57; 6HR MAX TEMP:  64;

$$

ILZ003-004-008-010-011-017-018-211900-
NORTH CENTRAL ILLINOIS

CITY           SKY/WX    TMP DP  RH WIND       PRES   REMARKS
ROCKFORD       NOT AVBL
$$

ILZ005-006-012>014-019>023-211900-
NORTHEAST ILLINOIS

CITY           SKY/WX    TMP DP  RH WIND       PRES   REMARKS
CHICAGO-OHARE  CLOUDY    64  51  62 NW20      29.93R
6HR MIN TEMP:  58; 6HR MAX TEMP:  64; 6HR PCP: TRACE;

CHICAGO-MIDWAY PTSUNNY   66  52  60 NW17G25   29.93R
6HR MIN TEMP:  59; 6HR MAX TEMP:  66;

AURORA         PTSUNNY   64  50  60 NW14G23   29.96R
6HR MIN TEMP:  56; 6HR MAX TEMP:  64;

WAUKEGAN       CLOUDY    61  50  67 NW14G21   29.92R
6HR MIN TEMP:  56; 6HR MAX TEMP:  62; 6HR PCP: TRACE;

DUPAGE AIRPORT PTSUNNY   63  51  65 NW17      29.95R
6HR MIN TEMP:  57; 6HR MAX TEMP:  64;

WHEELING       PTSUNNY   66  52  60 NW16G28   29.94R
6HR MIN TEMP:  59; 6HR MAX TEMP:  66;

NORTHERLY ISL    N/A     63  50  62 NW15        N/A
$$

LMZ740>746-211900-
SOUTHERN LAKE MICHIGAN

STATION/POSITION SKY/WX   TEMP    WIND        PRES    VSBY  WAVE
                          AIR SEA DIR/SP/G                  HT/PER
                          (F)     (DEG/KT/KT) (MB)    (MI)  (FT/S)
SOUTHERN BUOY              59 62  330/ 27/ 33 1010.0R         6/ 6
WAUKEGAN HARBOR            62     340/ 20/ 23   N/A
HARRISON CRIB              60     300/ 22/ 26   N/A
BURNHAM HARBOR             63     290/ 14/ 20   N/A
CALUMET HARBOR             63     280/ 10/ 19 1011.8R
MICHIGAN CITY              60     290/ 28/ 32   N/A
MICHIGAN CITY 6N           61 64  310/ 19/ 27   N/A           8/ 6
ST. JOSEPH                 61 65  300/ 21/ 29   N/A           9/ 6
$$

ILZ025>027-034>036-040-047-049-050-058-095>099-211900-
WEST-CENTRAL ILLINOIS

CITY           SKY/WX    TMP DP  RH WIND       PRES   REMARKS
$$

ILZ028>032-037-038-041>044-048-051>054-059>061-211900-
CENTRAL ILLINOIS

CITY           SKY/WX    TMP DP  RH WIND       PRES   REMARKS
PEORIA         NOT AVBL
SPRINGFIELD    MOSUNNY   75  48  38 NW14G23   30.01S
6HR MIN TEMP:  56; 6HR MAX TEMP:  76;

TAYLORVILLE    NOT AVBL
$$

ILZ033-039-045-046-055>057-062-063-211900-
EAST-CENTRAL ILLINOIS

CITY           SKY/WX    TMP DP  RH WIND       PRES   REMARKS
CHAMPAIGN      MOSUNNY   70  50  49 NW22G30   29.96S
$$

ILZ079-100>102-211900-
SOUTHWEST ILLINOIS

CITY           SKY/WX    TMP DP  RH WIND       PRES   REMARKS
$$

ILZ064>066-069>071-074>076-080>082-084>086-088>090-092>094-211900-
SOUTH-CENTRAL ILLINOIS

CITY           SKY/WX    TMP DP  RH WIND       PRES   REMARKS
CARBONDALE     SUNNY     77  49  37 N13       30.02F
6HR MIN TEMP:  70; 6HR MAX TEMP:  77;

$$

ILZ067-068-072-073-078-083-087-091-211900-
SOUTHEAST ILLINOIS

CITY           SKY/WX    TMP DP  RH WIND       PRES   REMARKS
$$

ABBREVIATIONS USED IN REMARKS
   TC - TEMPERATURE IN CELSIUS
  WCI - WIND CHILL INDEX
   HX - HEAT INDEX
  VSB - VISIBILITY
$$



USA.gov is the U.S. government's official web portal to all federal, state and local government web resources and services.